User: anonymous   Login
Location: *
(17.3280°S, 114.7300°W)
Time: 07:12:47
(UTC+00:00)
Language:

METEOR-M - Orbit

View from above orbital plane
View from above orbital plane
View from above satellite
View from above satellite

Ground track
Ground track

The orbit data is extracted from the following two-line orbital elements,

1 35865U 09049A   20295.93936710 -.00000001  00000-0  18216-4 0  9999
2 35865  98.4520 277.6777 0002460 155.9904 204.1390 14.22252589575898
Epoch (UTC): 21 October 2020 22:32:41
Eccentricity: 0.0002460
inclination: 98.4520°
perigee height: 816 km
apogee height: 819 km
right ascension of ascending node: 277.6777°
argument of perigee: 155.9904°
revolutions per day: 14.22252589
mean anomaly at epoch: 204.1390°
orbit number at epoch: 57589

The dashed part of the orbit path shows where the satellite is in the earth's shadow,  

DLR